{"data":{"norad_id":63193,"intl_designator":"2025-048L","name":"STARLINK-11635 [DTC]","alt_names":[],"object_type":"PAYLOAD","status":"ACTIVE","operator":null,"country":"US","launch_date":"2025-03-13","launch_site_code":"AFETR","launch_vehicle":null,"mission":null,"orbit_class":"UNKNOWN","rcs_meters":null,"size_class":null,"mass_kg":null,"dimensions":null,"purposes":["comms"],"wikipedia_slug":null,"has_3d_model":false,"image_url":null,"decayed_at":null,"tle_current":{"epoch":"2026-09-21T21:40:05.972160Z","epoch_age_seconds":41077,"freshness":"FRESH","line1":"1 63193U 25048L   26264.90284690  .00132141  00000+0  10142-2 0  9990","line2":"2 63193  42.9994 216.8962 0001608 256.0601 104.0088 15.70906001 89388","mean_motion":15.70906001,"eccentricity":0.0001608,"inclination_deg":42.9994,"raan_deg":216.8962,"arg_perigee_deg":256.0601,"mean_anomaly_deg":104.0088,"bstar":0.0010142,"rev_number":8938,"period_min":91.666846971323,"perigee_km":355.22352646037,"apogee_km":357.38932346584,"semimajor_km":6734.4434249631,"source":"CELESTRAK","updated_at":"2026-09-22T09:00:49.796505Z"}}}